Date String (YYYY-MM-DD hh:mm:ss) UTC,Instrument flags,absolute air pressure of the measurement (hPa),sample flow rate (lpm),inlet stack bypass flow (lpm),air temperature of the measurement (°C),ambient temperature measured by the external sensor (°C),aerosol sample conditioner tube jacket temperature (°C),OPC LED temperature (°C),internal box temperature (°C),relative humidity of the measurement (%),span deviation,mass concentration of particles derived from Lorenz-Mie calculation of OPC scattering (μg/m³),mass concentration of particles derived from Lorenz-Mie calculation of OPC scattering (μg/m³),mass concentration of particles derived from Lorenz-Mie calculation of OPC scattering (μg/m³)
DateTimeUTC,F1_M11,P_M11,Q1_M11,Q2_M11,T1_M11,T2_M11,T3_M11,T4_M11,T5_M11,U1_M11,ZSPAN_M11,X0_M11,X2_M11,X1_M11
2024-05-29 13:00:00,SystemResetWarning,0831.1,5.01,000.00,028.5,027.8,000.0,036.9,030.3,023.4,0000.0,0016.56,0005.36,0004.05
2024-05-29 13:01:00,SystemResetWarning,0831.0,5.01,000.00,028.6,027.8,000.0,036.9,030.3,023.5,0000.0,0017.71,0005.33,0004.06
2024-05-29 13:02:00,SystemResetWarning,0831.0,5.01,000.00,028.6,027.8,000.0,036.9,030.4,023.4,0000.0,0017.76,0005.28,0004.08
2024-05-29 13:03:00,SystemResetWarning,0831.0,4.99,000.00,028.6,027.8,000.0,036.9,030.4,023.4,0000.0,0018.55,0005.34,0004.11
2024-05-29 13:04:00,SystemResetWarning,0831.0,5.00,000.00,028.6,027.9,000.0,036.9,030.4,023.7,0000.0,0018.41,0005.41,0004.12
2024-05-29 13:05:00,SystemResetWarning,0831.0,4.99,000.00,028.6,027.9,000.0,036.9,030.4,024.0,0000.0,0017.75,0005.40,0004.12
2024-05-29 13:06:00,SystemResetWarning,0831.0,4.99,000.00,028.6,027.9,000.0,036.9,030.4,024.1,0000.0,0016.86,0005.37,0004.13
2024-05-29 13:07:00,SystemResetWarning,0830.9,5.00,000.00,028.6,027.9,000.0,036.9,030.4,024.1,0000.0,0016.04,0005.40,0004.14
2024-05-29 13:08:00,SystemResetWarning,0830.9,5.02,000.00,028.6,027.9,000.0,036.9,030.4,024.1,0000.0,0016.38,0005.44,0004.15
2024-05-29 13:09:00,SystemResetWarning,0830.9,5.01,000.00,028.6,027.9,000.0,036.9,030.4,023.9,0000.0,0017.10,0005.52,0004.16
2024-05-29 13:10:00,SystemResetWarning,0830.9,4.98,000.00,028.6,027.9,000.0,036.9,030.4,023.9,0000.0,0017.72,0005.54,0004.16
2024-05-29 13:11:00,SystemResetWarning,0830.9,4.99,000.00,028.7,027.9,000.0,037.0,030.5,024.0,0000.0,0017.88,0005.58,0004.18
2024-05-29 13:12:00,SystemResetWarning,0830.9,5.02,000.00,028.7,028.0,000.0,037.0,030.5,024.0,0000.0,0017.44,0005.62,0004.20
2024-05-29 13:13:00,SystemResetWarning,0830.9,5.00,000.00,028.7,028.0,000.0,037.0,030.5,024.3,0000.0,0016.99,0005.71,0004.22
2024-05-29 13:14:00,SystemResetWarning,0830.9,4.99,000.00,028.7,028.0,000.0,037.0,030.5,024.5,0000.0,0017.26,0005.70,0004.22
2024-05-29 13:15:00,SystemResetWarning,0830.8,5.00,000.00,028.7,028.0,000.0,037.0,030.5,024.5,0000.0,0017.40,0005.67,0004.23
2024-05-29 13:16:00,SystemResetWarning,0830.8,5.00,000.00,028.7,028.0,000.0,037.0,030.5,024.3,0000.0,0017.55,0005.71,0004.26
2024-05-29 13:17:00,SystemResetWarning,0830.9,5.00,000.00,028.7,028.0,000.0,037.0,030.5,024.7,0000.0,0017.74,0005.74,0004.28
2024-05-29 13:18:00,SystemResetWarning,0830.8,5.00,000.00,028.7,028.0,000.0,037.0,030.5,024.5,0000.0,0017.67,0005.74,0004.29
2024-05-29 13:19:00,SystemResetWarning,0830.8,5.00,000.00,028.7,028.0,000.0,037.0,030.5,024.3,0000.0,0018.37,0005.70,0004.30
2024-05-29 13:20:00,SystemResetWarning,0830.8,5.01,000.00,028.8,028.0,000.0,037.0,030.5,024.3,0000.0,0018.46,0005.69,0004.32
2024-05-29 13:21:00,SystemResetWarning,0830.8,5.00,000.00,028.8,028.1,000.0,037.0,030.6,024.3,0000.0,0018.94,0005.66,0004.33
2024-05-29 13:22:00,SystemResetWarning,0830.8,5.00,000.00,028.8,028.1,000.0,037.0,030.6,024.8,0000.0,0019.11,0005.68,0004.34
2024-05-29 13:23:00,SystemResetWarning,0830.8,5.01,000.00,028.8,028.1,000.0,037.1,030.6,024.7,0000.0,0019.51,0005.65,0004.34
2024-05-29 13:24:00,SystemResetWarning,0830.9,4.99,000.00,028.8,028.1,000.0,037.1,030.6,024.7,0000.0,0018.87,0005.61,0004.35
2024-05-29 13:25:00,SystemResetWarning,0830.8,5.00,000.00,028.8,028.1,000.0,037.1,030.6,024.9,0000.0,0017.98,0005.66,0004.35
2024-05-29 13:26:00,SystemResetWarning,0830.8,4.99,000.00,028.8,028.1,000.0,037.1,030.6,025.2,0000.0,0019.04,0005.77,0004.34
2024-05-29 13:27:00,SystemResetWarning,0830.8,4.99,000.00,028.8,028.1,000.0,037.1,030.6,026.3,0000.0,0019.55,0005.78,0004.33
2024-05-29 13:28:00,SystemResetWarning,0830.7,5.00,000.00,028.8,028.1,000.0,037.1,030.6,026.7,0000.0,0020.85,0005.77,0004.32
2024-05-29 13:29:00,SystemResetWarning,0830.7,5.01,000.00,028.9,028.1,000.0,037.1,030.6,026.2,0000.0,0022.20,0005.76,0004.32
2024-05-29 13:30:00,SystemResetWarning,0830.7,5.00,000.00,028.9,028.1,000.0,037.1,030.7,026.4,0000.0,0021.48,0005.75,0004.32
2024-05-29 13:31:00,SystemResetWarning,0830.7,5.00,000.00,028.9,028.1,000.0,037.1,030.6,026.2,0000.0,0020.15,0005.78,0004.30
2024-05-29 13:32:00,SystemResetWarning,0830.7,5.00,000.00,028.9,028.1,000.0,037.2,030.6,026.2,0000.0,0019.13,0005.80,0004.30
2024-05-29 13:33:00,SystemResetWarning,0830.7,5.00,000.00,028.9,028.1,000.0,037.2,030.6,026.2,0000.0,0019.79,0005.82,0004.29
2024-05-29 13:34:00,SystemResetWarning,0830.7,5.00,000.00,028.9,028.2,000.0,037.2,030.7,026.3,0000.0,0020.33,0005.85,0004.30
2024-05-29 13:35:00,SystemResetWarning,0830.7,5.00,000.00,028.9,028.2,000.0,037.2,030.7,026.7,0000.0,0021.19,0005.91,0004.28
2024-05-29 13:36:00,SystemResetWarning,0830.7,5.00,000.00,028.9,028.2,000.0,037.2,030.7,026.3,0000.0,0021.08,0005.89,0004.27
2024-05-29 13:37:00,SystemResetWarning,0830.7,5.01,000.00,028.9,028.2,000.0,037.2,030.7,026.1,0000.0,0019.63,0005.76,0004.27
2024-05-29 13:38:00,SystemResetWarning,0830.7,5.00,000.00,028.9,028.2,000.0,037.2,030.7,026.2,0000.0,0019.99,0005.73,0004.27
2024-05-29 13:39:00,SystemResetWarning,0830.7,5.00,000.00,028.9,028.2,000.0,037.2,030.7,026.4,0000.0,0019.92,0005.75,0004.28
2024-05-29 13:40:00,SystemResetWarning,0830.6,5.00,000.00,029.0,028.2,000.0,037.2,030.7,025.6,0000.0,0018.90,0005.77,0004.28
2024-05-29 13:41:00,SystemResetWarning,0830.6,5.00,000.00,029.0,028.2,000.0,037.2,030.7,025.9,0000.0,0018.40,0005.80,0004.29
2024-05-29 13:42:00,SystemResetWarning,0830.6,5.00,000.00,029.0,028.2,000.0,037.2,030.7,026.0,0000.0,0018.29,0005.83,0004.30
2024-05-29 13:43:00,SystemResetWarning,0830.6,5.00,000.00,029.0,028.2,000.0,037.3,030.8,026.1,0000.0,0019.46,0005.85,0004.31
2024-05-29 13:44:00,SystemResetWarning,0830.6,5.00,000.00,029.0,028.3,000.0,037.3,030.8,025.8,0000.0,0019.40,0005.83,0004.32
2024-05-29 13:45:00,SystemResetWarning,0830.6,5.01,000.00,029.0,028.3,000.0,037.3,030.8,025.8,0000.0,0018.45,0005.87,0004.34
2024-05-29 13:46:00,SystemResetWarning,0830.6,5.00,000.00,029.0,028.3,000.0,037.3,030.8,026.4,0000.0,0018.21,0005.83,0004.35
2024-05-29 13:47:00,SystemResetWarning,0830.6,5.00,000.00,029.0,028.3,000.0,037.3,030.8,026.3,0000.0,0018.46,0005.83,0004.38
2024-05-29 13:48:00,SystemResetWarning,0830.6,5.00,000.00,029.0,028.3,000.0,037.3,030.8,025.9,0000.0,0017.87,0005.88,0004.41
2024-05-29 13:49:00,SystemResetWarning,0830.6,5.00,000.00,029.0,028.3,000.0,037.3,030.8,026.0,0000.0,0016.85,0005.91,0004.44
2024-05-29 13:50:00,SystemResetWarning,0830.6,5.00,000.00,029.1,028.3,000.0,037.3,030.8,026.5,0000.0,0015.50,0005.92,0004.47
2024-05-29 13:51:00,SystemResetWarning,0830.6,4.99,000.00,029.1,028.3,000.0,037.3,030.8,026.5,0000.0,0015.57,0005.99,0004.48
2024-05-29 13:52:00,SystemResetWarning,0830.5,4.99,000.00,029.1,028.3,000.0,037.3,030.8,026.5,0000.0,0015.41,0006.03,0004.50
2024-05-29 13:53:00,SystemResetWarning,0830.6,5.00,000.00,029.1,028.4,000.0,037.3,030.8,026.2,0000.0,0015.24,0006.02,0004.51
2024-05-29 13:54:00,SystemResetWarning,0830.5,5.01,000.00,029.1,028.4,000.0,037.4,030.8,026.1,0000.0,0014.41,0006.00,0004.53
2024-05-29 13:55:00,SystemResetWarning,0830.4,5.01,000.00,029.1,028.4,000.0,037.4,030.9,026.3,0000.0,0014.13,0006.02,0004.55
2024-05-29 13:56:00,SystemResetWarning,0830.4,5.01,000.00,029.1,028.4,000.0,037.4,030.9,026.1,0000.0,0014.52,0006.00,0004.55
2024-05-29 13:57:00,SystemResetWarning,0830.7,5.00,000.00,029.1,028.4,000.0,037.4,030.9,026.1,0000.0,0014.80,0006.05,0004.56
2024-05-29 13:58:00,SystemResetWarning,0830.7,4.99,000.00,029.1,028.4,000.0,037.4,030.9,026.4,0000.0,0015.85,0006.12,0004.57
2024-05-29 13:59:00,SystemResetWarning,0830.8,5.00,000.00,029.1,028.4,000.0,037.4,030.9,026.0,0000.0,0016.38,0006.13,0004.58
